Location: Ailingen
(47.6833°N, 9.5000°E)
Time: 13:51:41
(UTC+00:00)

Iridium 4 Rocket - Pass Details

Date: 18 November 2025
Orbit: 579 x 888 km, 86.9° (Epoch: 06 December)

Event Time Altitude Azimuth Distance (km) Brightness Sun altitude
Rises 16:11:44 0° 189° (S) 3,232 7.2 -5.3°
Reaches altitude 10° 16:14:11 10° 192° (SSW) 2,261 6.5 -5.7°
Maximum altitude 16:19:10 66° 274° (W) 766 3.8 -6.5°
Drops below altitude 10° 16:23:45 10° 357° (N) 2,083 5.6 -7.2°
Sets 16:25:56 0° 1° (N) 2,957 6.3 -7.6°
